Flag for U.S.A. Weather past 2 weeks in Cupertino, California, U.S.A.

Now
60 °F

Sunny.


Feels Like: 60 °F
Forecast: 54 / 72 °F
Wind: 6 mph from West

Location: Moffett Field

Current Time: May 23, 2015 at 9:04:55 PM

Latest Report: May 23, 2015 at 7:56 PM


Visibility: 10 mi

Pressure: 30.07 "Hg

Humidity: 60%

Dew point: 46 °F

Location of CupertinoLocation

Historic Weather in Cupertino — Graph

°F

Cupertino temperature yesterday

Maximum temperature yesterday: 67 °F (at 2:56 PM)
Minimum temperature yesterday: 55 °F (at 12:56 AM)
Average temperature yesterday: 59 °F

Past Weeks' High & Low Weather Summary

 TemperatureHumidityPressure
High67 °F (May 13, 2:56 PM)93% (May 15, 5:56 AM)30.14 "Hg (May 15, 5:56 AM)
Low48 °F (May 12, 4:56 AM)35% (May 12, 4:56 PM)29.81 "Hg (May 14, 3:56 PM)
Average58 °F68%30.01 "Hg
* Reported May 8 7:56 PM — May 23 7:56 PM, Cupertino, Weather by CustomWeather, © 2015

Note: Actual official high and low records may vary slightly from our data, if they occured in-between our weather recording intervals... More about our weather records

Advertising

Cupertino weather history for previous 24 hours

 ConditionsComfort  
Time TempWeatherWind HumidityBarometerVisibility
7:56 PM
Sat, May 23
60 °FSunny.6 mph60%30.07 "Hg10 mi
6:56 PM61 °FSunny.8 mph60%30.06 "Hg10 mi
5:56 PM63 °FSunny.10 mph56%30.06 "Hg10 mi
4:56 PM64 °FSunny.10 mph56%30.06 "Hg10 mi
3:56 PM64 °FSunny.10 mph58%30.07 "Hg10 mi
2:56 PM64 °FSunny.9 mph58%30.08 "Hg10 mi
1:56 PM64 °FSunny.8 mph58%30.09 "Hg10 mi
12:56 PM64 °FPassing clouds.9 mph58%30.10 "Hg10 mi
11:56 AM61 °FScattered clouds.10 mph65%30.12 "Hg10 mi
10:56 AM61 °FPartly sunny.9 mph62%30.12 "Hg10 mi
9:56 AM60 °FOvercast.6 mph67%30.12 "Hg10 mi
8:56 AM58 °FOvercast.9 mph72%30.13 "Hg10 mi
7:56 AM57 °FPartly sunny.9 mph74%30.12 "Hg10 mi
6:56 AM56 °FOvercast.8 mph77%30.10 "Hg10 mi
5:56 AM57 °FOvercast.8 mph78%30.09 "Hg10 mi
4:56 AM57 °FOvercast.5 mph78%30.09 "Hg10 mi
3:56 AM57 °FOvercast.6 mph78%30.09 "Hg10 mi
2:56 AM57 °FOvercast.6 mph78%30.09 "Hg10 mi
1:56 AM57 °FOvercast.7 mph74%30.09 "Hg10 mi
12:56 AM57 °FOvercast.6 mph74%30.10 "Hg10 mi
11:56 PM
Fri, May 22
57 °FOvercast.7 mph78%30.10 "Hg10 mi
10:56 PM58 °FOvercast.6 mph75%30.10 "Hg10 mi
9:56 PM58 °FOvercast.7 mph72%30.11 "Hg10 mi
Weather by CustomWeather, © 2015

See weather overviewHow to use our weather pages